Regional Weather Roundup
Issued by NWS Wakefield, VA

Home | Current Version | Previous Version | Graphics & Text | Print | Product List | Glossary On
Versions: 1 2 3 4 5 6 7 8 9 10 11 12 13 14 15 16 17 18 19 20 21 22 23 24 25 26 27 28 29 30 31 32 33 34 35 36 37 38 39 40 41 42 43 44 45 46 47 48 49 50
000
ASUS41 KAKQ 180315
RWRAKQ

REGIONAL WEATHER ROUNDUP
NATIONAL WEATHER SERVICE WAKEFIELD VA
1000 PM EST SUN DEC 17 2017

Note: "fair" indicates few or no clouds below 12,000 feet with no
significant weather and/or obstructions to visibility. * = Denotes
station may not report precipitation (e.g., rain,snow,etc.),
thunder or fog.

VAZ042-051-052>054-056-180400-
NORTHERN VIRGINIA

CITY           SKY/WX    TMP DP  RH WIND       PRES   REMARKS
WASH NATIONAL  CLOUDY    45  34  65 S6        30.17F
DULLES         CLOUDY    41  33  73 CALM      30.16S
FORT BELVOIR   CLOUDY    39  36  89 CALM      30.16S
QUANTICO       CLOUDY    42  38  85 CALM      30.17F
FREDERICKSBRG* CLOUDY    44  35  72 CALM      30.15S
STAFFORD*      CLOUDY    39  39 100 CALM      30.20S
WARRENTON      CLOUDY    40  35  83 CALM      30.15R
CULPEPER*      CLOUDY    41  37  88 CALM      30.16S
MANASSAS*      CLOUDY    40  36  86 CALM      30.16S
LEESBURG*      CLOUDY    43  36  75 CALM      30.16S
WINCHESTER     RAIN      37  32  81 CALM      30.13F
FRONT ROYAL*   CLOUDY    43  32  65 MISG      30.12F
LURAY*         CLOUDY    39  37  93 CALM      30.13R
$$

VAZ048-049-060>072-079>083-180400-
CENTRAL AND SOUTH CENTRAL VIRGINIA

CITY           SKY/WX    TMP DP  RH WIND       PRES   REMARKS
RICHMOND       CLOUDY    43  36  76 CALM      30.17F
CHESTERFIELD*  NOT AVBL
PETERSBURG*    MOCLDY    41  34  75 CALM      30.18S
HANOVER        CLOUDY    41  37  86 CALM      30.17F
TAPPAHANNOCK*  CLOUDY    43  36  74 S3        30.17F
QUINTON*       CLOUDY    42  36  77 CALM      30.18F
CHARLOTTSVILLE CLOUDY    44  34  67 CALM      30.14S
GORDONSVILLE*  CLOUDY    41  36  80 SW5       30.15S
ORANGE*        CLOUDY    41  32  70 CALM      30.15S
LOUISA*        CLOUDY    41  33  72 SW3       30.20S
BUMPASS*       CLOUDY    41  35  78 CALM      30.15F
FARMVILLE*     CLOUDY    38  38 100 SW3       30.15S
CREWE*         FAIR      37  37 100 CALM      30.17S
FORT PICKETT*  NOT AVBL
CHASE CITY*    CLOUDY    43  38  84 CALM      30.17S
CLARKSVILLE*   CLOUDY    43  37  81 CALM      30.18S
SOUTH HILL*    CLOUDY    42  39  90 CALM      30.24S
LAWRENCEVILLE* CLOUDY    43  37  78 SW3       30.18F
EMPORIA*       CLOUDY    43  36  75 CALM      30.20F
$$

VAZ088>098-180400-
SOUTHEAST VIRGINIA

CITY           SKY/WX    TMP DP  RH WIND       PRES   REMARKS
NORFOLK        CLOUDY    47  35  63 SW7       30.19F
VIRGINIA BEACH CLOUDY    46  32  58 SW6       30.19F
NORFOLK NAVAL  CLOUDY    48  34  58 SW5       30.21F
WEST POINT*    CLOUDY   N/A N/A N/A S3        30.20F
SALUDA*        CLOUDY    43  36  77 CALM      30.17F
NEWPORT NEWS   CLOUDY    45  36  70 SW3       30.20F
LANGLEY AFB    CLOUDY    46  35  65 SW5       30.19F
FORT EUSTIS    CLOUDY    45  36  70 CALM      30.17F
WILLIAMSBURG*  CLOUDY    45  37  76 CALM      30.19F
HR EXEC AP*    CLOUDY    46  35  65 S7        30.20F
FRANKLIN*      CLOUDY    45  36  70 CALM      30.21F
US460-WAKEFLD  CLOUDY    44  37  76 S3        30.19F
$$

VAZ020-022-025-037-045-180400-
WEST CENTRAL AND SOUTHWEST VIRGINIA

CITY           SKY/WX    TMP DP  RH WIND       PRES   REMARKS
STAUNTON*      CLOUDY    40  32  73 S3        30.15R
WAYNESBORO*    CLOUDY    40  33  76 SW5       30.13R
HOT SPRINGS VA CLOUDY    35  28  75 W6        30.08F
LYNCHBURG      CLOUDY    34  32  92 CALM      30.15F
DANVILLE       CLOUDY    42  39  89 CALM      30.18S
SOUTH BOSTON*  CLOUDY    41  40  95 CALM      30.18S
MARTINSVILLE   CLOUDY    42  33  70 CALM      30.20S
ROANOKE        CLOUDY    43  35  73 CALM      30.17S
BLACKSBURG     CLOUDY    39  35  85 CALM      30.16F
DUBLIN*        CLOUDY    40  36  84 CALM      30.16S
MARION*        CLOUDY    40  31  69 CALM      30.16S
HILLSVILLE*    CLOUDY    38  29  70 CALM      30.13R
RICHLANDS*     CLOUDY    38  33  80 W5        30.14S
WISE*          CLOUDY    41  41 100 SW8       30.15S FOG
ABINGDON*      CLOUDY    41  37  86 SW3       30.17S
$$

MDZ021>025-VAZ099-100-180400-
SOUTHERN MARYLAND AND THE DELMARVA PENINSULA

CITY           SKY/WX    TMP DP  RH WIND       PRES   REMARKS
PATUXENT RIVER CLOUDY    43  40  89 CALM      30.17F
BAY BRIDGE APT CLOUDY    43  34  70 CALM      30.17F
LEONARDTOWN    CLOUDY    41  37  87 CALM      30.18F
DOVER          CLOUDY    39  39 100 E5        30.17F
GEORGETOWN     CLOUDY    43  37  79 SE5       30.17F
EASTON         NOT AVBL
CAMBRIDGE      CLOUDY    41  37  87 CALM      30.17F
SALISBURY      CLOUDY    42  41  96 S3        30.17F
OCEAN CITY     CLOUDY    42  41  96 CALM      30.19F
WALLOPS ISLAND CLOUDY    43  42  97 CALM      30.18F
ACCOMACK*      CLOUDY    46  36  70 SW5       30.18F
$$

NCZ012>017-030>032-180400-
NORTH CENTRAL AND EASTERN NORTH CAROLINA

CITY           SKY/WX    TMP DP  RH WIND       PRES   REMARKS
ROANOKE RAPIDS CLOUDY    43  41  93 CALM      30.21F
RALEIGH        CLOUDY    45  41  86 CALM      30.21S
ELIZABETH CITY LGT RAIN  45  44  97 SW7       30.22F
AHOSKIE*       CLOUDY    42  41  99 CALM      30.22F
EDENTON*       CLOUDY    46  44  91 S3        30.24S
CURRITUCK*     CLOUDY    46  37  71 S3        30.22F
KILL DEVIL HLS CLOUDY    45  37  72 CALM      30.21F
MANTEO         DRIZZLE   45  41  86 CALM      30.24S
CAPE HATTERAS  CLOUDY    48  46  93 CALM      30.24S
TARBORO*       NOT AVBL
GOLDSBORO      CLOUDY    49  39  67 E5        30.20F
WASHINGTON     RAIN      47  39  74 CALM      30.24S
GREENVILLE     LGT RAIN  46  43  87 CALM      30.24F
NEW BERN       CLOUDY    47  45  93 S5        30.25S
WILMINGTON     CLOUDY    53  48  83 CALM      30.23F
$$

VAZ048-180400-
ELSEWHERE

CITY           SKY/WX    TMP DP  RH WIND       PRES   REMARKS
HARRISBURG PA  CLOUDY    36  30  79 CALM      30.16F
BALTIMORE      LGT RAIN  41  35  79 NE6       30.16F
ANNAPOLIS      CLOUDY    42  37  82 CALM      30.16F
ANDREWS AFB    CLOUDY    42  34  75 CALM      30.15S
PHILADELPHIA   CLOUDY    39  31  72 NE8       30.21F
HENDERSON NC   CLOUDY    41  37  84 SE3       30.19S
GREENSBORO     CLOUDY    44  37  76 SW3       30.18S
ROCKY MOUNT    CLOUDY    44  44 100 E5        30.21F FOG
$$

VAZ100-180400-
MARINE

STATION/POSITION TIME  TEMP    WIND        PRES    WAVE   SWELL
                       AIR SEA DIR/SP/G            HT/PER HT/PER
                 (UTC) (F)     (DEG/KT/KT) (MB)    (FT/S) (FT/S)
BRANDYWINE LGT   0242          110/  6/  7 1022.4F
CAPE MAY NJ      0242      42  110/  3/  4 1021.7F
LEWES DE         0242      42  180/  5/  8 1021.8F
15NM E FENWICK I 0250   51 52  170/  6/  6 1022.6F   1/ 8   2/ 8
OCEAN-CITY-INLET 0242      45  150/  1/  2 1022.5F
WACHAPREAGUE VA  0242      41  190/  2/  3 1021.9F
THOMAS POINT MD  0300   44 44   CALM  /  1   N/A
GOOSES REEF MD   0300   44 44  200/ 10/ 12 1021.9
COVE POINT MD    0242          180/  8/  9 1022.2F
SOLOMONS ISLAND  0242      44  160/  2/  3 1021.3F
BISHOPS HEAD MD  0242      38  130/  6/  6 1022.0F
PINEY POINT MD   0242          180/  5/  6   N/A
POTOMAC MD       0300   45 45  180/  6/  8 1021.1    0
CAMBRIDGE MD     0242      39              1022.2F
LEWISETTA VA     0242      40  230/  7/  8 1021.8F
RAPPAHANNOCK LGT 0242          210/ 10/ 11 1022.8F
STINGRAY PT      0250   45     220/  8/  8 1022.2F
YORK RVR RNG VA  0242          230/  7/  8 1022.9F
YORKTOWN VA      0242      45  210/  7/ 10 1021.9F
JAMESTOWN VA     0300      43  160/  6/  6   N/A     0
DOMINION TERM VA 0236          220/  3/  4 1022.9F
KIPTOPEKE VA     0242      45  240/  7/  9   N/A
CAPE HENRY VA    0242          200/  5/  7   N/A
WILLOUBY STN VA  0242          230/  7/  8 1022.2F
S CRANEY ISL VA  0242          200/  5/  6 1022.5F
CAPE HENRY BUOY  0230      51                N/A     1/10
1ST LANDING BUOY 0300   47 47  230/  6/  8 1022.6    1
CAPE CHARLES BUO 0251      50                N/A     1/11
64NM E OF VA BCH 0250   54 58  260/ 12/ 14 1022.9F   2/ 3
DUCK PIER NC     0242      52  210/  7/  9 1022.8F
44100 DUCK FRF   0245      54                N/A     1/10
44056 DUCK FRF   0300      54                N/A     1/10
OREGON INLET NC  0242      45  180/  3/  4 1023.6F
HATTERAS NC      0242      52  220/  5/  6 1023.6F
DIAMOND SHLS NC  0250   62 72  270/ 12/ 16 1024.2F   2/10   2/10
CAPE LOOKOUT NC  0300           40/  3/  4 1024.1F
$$



USA.gov is the U.S. government's official web portal to all federal, state and local government web resources and services.